User: anonymous
Location: Caltech
(34.1382°N, 118.1253°W)
Time: 10:52:59
(UTC-07:00)
Language:

Cosmos 1937 Rocket - Orbit

View from above orbital plane
View from above orbital plane
View from above satellite
View from above satellite

Ground track
Ground track

The orbit data is extracted from the following two-line orbital elements,

1 19039U 88029B   14261.51808949  .00000197  00000-0  73560-4 0  1238
2 19039 074.0507 345.5206 0023295 044.7285 055.4863 14.38031776386708
Epoch (UTC): 18 September 2014 12:26:02
Eccentricity: 0.0023295
inclination: 74.0507°
perigee height: 748 km
apogee height: 781 km
right ascension of ascending node: 345.5206°
argument of perigee: 44.7285°
revolutions per day: 14.38031776
mean anomaly at epoch: 55.4863°
orbit number at epoch: 38670

The dashed part of the orbit path shows where the satellite is in the earth's shadow,  

DLR